Location: Newark
(42.8481°N, 0.4872°E)
Time: 18:04:06
(UTC+00:00)

Vanguard 2 - Pass Details

Date: 02 November 2020
Orbit: 554 x 2937 km, 32.9° (Epoch: 24 November)

Event Time Altitude Azimuth Distance (km) Brightness Sun altitude
Rises 15:15:10 0° 177° (S) 4,009 11.7 14.2°
Reaches altitude 10° 15:20:54 10° 142° (SE) 3,652 11.0 13.4°
Maximum altitude 15:23:03 11° 129° (SE) 3,799 11.0 13.1°
Drops below altitude 10° 15:25:24 10° 116° (ESE) 4,104 11.0 12.7°
Sets 15:33:45 0° 87° (E) 5,839 11.5 11.5°
